Weather reports worldwide

Advertisment
Ibiza/Es Codola, Spain (8373): temperature & dewpoint: 16.02.2019 22:00:00 - 22.02.2019 22:00:00 (CET)Ibiza/Es Codola, Spain (8373): wind speed: 16.02.2019 22:00:00 - 22.02.2019 22:00:00 (CET)Ibiza/Es Codola, Spain (8373): wind direction: 16.02.2019 22:00:00 - 22.02.2019 22:00:00 (CET)Ibiza/Es Codola, Spain (8373): reduced air pressure: 16.02.2019 22:00:00 - 22.02.2019 22:00:00 (CET)Ibiza/Es Codola, Spain (8373): visibility: 16.02.2019 22:00:00 - 22.02.2019 22:00:00 (CET)
Date & Time tt [°C] td [°C] ff [km/h] ff [kn] dd ppp [hPa] vv [km]
22.02.2019 22:00:00 9,8 7,3 11 6 WSW 1028,3 10
22.02.2019 21:00:00 11,2 8,7 13 7 WSW 1028,1 10
22.02.2019 20:00:00 12,4 9,8 18 10 SW 1028,1 10
22.02.2019 19:00:00 12,6 9,6 18 10 SW 1027,9 15
22.02.2019 18:00:00 13,9 9,7 18 10 SW 1028,1 10
22.02.2019 17:00:00 14,9 9,7 22 12 SW 1028,3 10
22.02.2019 16:00:00 15,4 9,8 22 12 SW 1028,7 10
22.02.2019 15:00:00 15,4 10,0 21 11 SW 1029,1 10
22.02.2019 14:00:00 15,8 9,6 26 14 SW 1029,7 10
22.02.2019 13:00:00 15,0 9,4 28 15 SW 1030,6 18
22.02.2019 12:00:00 14,9 9,6 24 13 SW 1031,3 10
22.02.2019 11:00:00 14,3 9,2 22 12 SW 1031,3 10
22.02.2019 10:00:00 12,8 9,5 5 3 SW 1031,3 10
22.02.2019 09:00:00 8,2 7,1 0 0 N 1031,7 10
22.02.2019 08:00:00 4,2 3,3 4 2 NNE 1031,8 10
22.02.2019 07:00:00 3,9 3,0 0 0 N 1031,5 10
22.02.2019 06:00:00 4,4 3,4 0 0 N 1031,5 10
22.02.2019 05:00:00 5,3 4,3 0 0 N 1031,5 10
22.02.2019 04:00:00 5,1 4,1 2 1 N 1031,5 10
22.02.2019 03:00:00 5,6 4,6 4 2 NW 1032,0 10
22.02.2019 02:00:00 6,0 4,9 0 0 N 1032,0 10
22.02.2019 01:00:00 6,7 5,1 4 2 NW 1032,0 10
22.02.2019 00:00:00 6,0 3,9 0 0 N 1032,3 10
21.02.2019 23:00:00 7,7 5,7 4 2 - 1032,2 10
21.02.2019 22:00:00 7,8 5,4 0 0 N 1032,2 10
21.02.2019 21:00:00 8,1 5,2 4 2 NW 1031,4 10
21.02.2019 20:00:00 9,6 6,4 2 1 - 1031,1 10
21.02.2019 19:00:00 11,3 6,3 8 4 SW 1030,6 18
21.02.2019 18:00:00 14,4 7,2 8 4 SW 1030,4 10
21.02.2019 17:00:00 15,3 7,8 9 5 SSW 1030,1 10
21.02.2019 16:00:00 15,9 7,4 8 4 SSW 1029,9 10
21.02.2019 15:00:00 15,5 7,8 9 5 SSW 1029,8 10
21.02.2019 14:00:00 14,4 7,7 4 2 E 1029,9 10
21.02.2019 13:00:00 15,6 8,3 9 5 E 1030,2 10
21.02.2019 12:00:00 16,0 7,0 11 6 ESE 1030,4 10
21.02.2019 11:00:00 15,2 7,8 5 3 E 1030,3 10
21.02.2019 10:00:00 13,4 7,9 4 2 - 1030,2 10
21.02.2019 09:00:00 9,7 7,5 0 0 N 1029,8 10
21.02.2019 08:00:00 5,5 4,1 2 1 - 1028,9 10
21.02.2019 07:00:00 6,1 4,3 8 4 NNW 1028,3 15
21.02.2019 06:00:00 5,5 3,8 0 0 N 1028,2 10
21.02.2019 05:00:00 5,6 4,1 0 0 N 1028,2 10
21.02.2019 04:00:00 5,7 4,2 0 0 N 1028,0 10
21.02.2019 03:00:00 5,1 3,5 2 1 - 1028,3 10
21.02.2019 02:00:00 6,1 4,3 4 2 NW 1028,2 10
21.02.2019 01:00:00 5,9 4,4 2 1 WNW 1028,0 10
21.02.2019 00:00:00 5,6 4,0 0 0 N 1027,7 10
20.02.2019 23:00:00 5,9 3,8 0 0 N 1027,7 10
20.02.2019 22:00:00 6,9 4,4 0 0 N 1027,4 15
20.02.2019 21:00:00 7,4 4,9 0 0 N 1027,0 10
20.02.2019 20:00:00 8,6 5,4 9 5 NNW 1026,7 10
20.02.2019 19:00:00 10,2 6,1 4 2 E 1026,1 20
20.02.2019 18:00:00 12,9 6,5 8 4 ENE 1025,6 10
20.02.2019 17:00:00 13,9 6,6 11 6 ENE 1025,4 10
20.02.2019 16:00:00 14,4 6,9 9 5 ENE 1025,4 20
20.02.2019 15:00:00 13,8 7,6 9 5 E 1025,5 10
20.02.2019 14:00:00 14,1 6,9 9 5 E 1025,6 10
20.02.2019 13:00:00 14,8 7,0 11 6 E 1025,8 10
20.02.2019 12:00:00 14,9 6,8 13 7 E 1025,8 10
20.02.2019 11:00:00 14,5 7,1 8 4 E 1025,4 10
20.02.2019 10:00:00 13,5 7,0 0 0 N 1025,0 10
20.02.2019 09:00:00 10,8 7,3 0 0 N 1024,6 10
20.02.2019 08:00:00 7,0 5,5 0 0 N 1023,8 10
20.02.2019 07:00:00 6,4 4,9 0 0 N 1023,1 18
20.02.2019 06:00:00 7,4 5,4 5 3 NW 1023,0 10
20.02.2019 05:00:00 7,0 5,7 0 0 N 1022,9 10
20.02.2019 04:00:00 6,7 5,1 2 1 - 1023,0 10
20.02.2019 03:00:00 7,7 5,5 4 2 - 1023,2 10
20.02.2019 02:00:00 8,2 6,3 0 0 N 1023,1 10
20.02.2019 01:00:00 8,1 5,9 0 0 N 1023,1 10
20.02.2019 00:00:00 9,2 6,3 0 0 N 1023,0 10
19.02.2019 23:00:00 9,3 6,2 9 5 NNW 1022,9 10
19.02.2019 22:00:00 9,6 6,1 4 2 N 1022,6 15
19.02.2019 21:00:00 10,3 6,5 8 4 N 1022,1 10
19.02.2019 20:00:00 11,8 7,3 8 4 NNE 1021,9 10
19.02.2019 19:00:00 12,0 7,0 13 7 NE 1021,3 15
19.02.2019 18:00:00 13,2 6,9 16 9 ENE 1020,7 10
19.02.2019 17:00:00 14,1 7,4 18 10 E 1020,7 10
19.02.2019 16:00:00 14,7 8,1 22 12 ENE 1021,0 15
19.02.2019 15:00:00 15,0 8,3 21 11 E 1021,1 10
19.02.2019 14:00:00 15,4 8,1 21 11 E 1021,4 10
19.02.2019 13:00:00 15,0 7,8 22 12 ENE 1021,9 18
19.02.2019 12:00:00 14,9 8,3 21 11 ENE 1022,2 10
19.02.2019 11:00:00 13,6 8,1 18 10 ENE 1022,2 10
19.02.2019 10:00:00 13,4 9,1 15 8 NE 1021,9 10
19.02.2019 09:00:00 11,8 9,2 11 6 NNE 1021,6 10
19.02.2019 08:00:00 7,1 6,0 8 4 NNE 1021,0 10
19.02.2019 07:00:00 7,3 6,2 9 5 N 1020,7 10
19.02.2019 06:00:00 7,1 5,9 9 5 NNW 1020,8 10
19.02.2019 05:00:00 7,9 6,5 11 6 N 1020,5 10
19.02.2019 04:00:00 8,0 6,9 9 5 NNE 1020,6 10
19.02.2019 03:00:00 8,6 7,4 4 2 - 1020,8 10
19.02.2019 02:00:00 8,5 7,2 11 6 N 1021,0 10
19.02.2019 01:00:00 7,6 6,2 9 5 NNE 1021,3 10
19.02.2019 00:00:00 8,0 6,8 8 4 N 1021,4 10
18.02.2019 23:00:00 8,6 7,2 8 4 N 1021,6 10
18.02.2019 22:00:00 9,8 8,0 8 4 N 1021,4 10
18.02.2019 21:00:00 11,5 9,0 9 5 N 1021,1 10
18.02.2019 20:00:00 11,6 9,0 13 7 NE 1020,8 10
18.02.2019 19:00:00 12,2 9,1 11 6 NE 1020,4 10
18.02.2019 18:00:00 13,9 9,2 15 8 ENE 1020,1 10
18.02.2019 17:00:00 14,8 10,1 18 10 E 1020,3 10
18.02.2019 16:00:00 15,5 10,5 15 8 ENE 1020,5 10
18.02.2019 15:00:00 15,5 10,6 16 9 ENE 1021,0 10
18.02.2019 14:00:00 15,7 10,7 18 10 ENE 1021,6 10
18.02.2019 13:00:00 15,4 10,2 18 10 ENE 1022,3 15
18.02.2019 12:00:00 15,4 10,7 18 10 E 1022,7 10
18.02.2019 11:00:00 14,9 10,3 18 10 ENE 1022,6 10
18.02.2019 10:00:00 13,5 10,3 15 8 NE 1022,6 12
18.02.2019 09:00:00 10,8 9,6 8 4 NNE 1022,7 10
18.02.2019 08:00:00 7,7 6,9 8 4 N 1022,3 10
18.02.2019 07:00:00 6,7 5,8 2 1 - 1022,4 10
18.02.2019 06:00:00 7,4 6,5 4 2 - 1022,4 10
18.02.2019 05:00:00 7,0 6,1 2 1 N 1022,5 10
18.02.2019 04:00:00 7,8 6,8 2 1 N 1022,8 10
18.02.2019 03:00:00 8,2 7,0 4 2 N 1023,4 10
18.02.2019 02:00:00 8,3 6,9 5 3 N 1023,7 10
18.02.2019 01:00:00 9,1 7,5 11 6 N 1024,1 10
18.02.2019 00:00:00 9,5 7,9 9 5 N 1024,3 10
17.02.2019 23:00:00 12,1 9,6 9 5 ENE 1024,7 10
17.02.2019 22:00:00 12,6 9,8 9 5 E 1024,8 12
17.02.2019 21:00:00 12,7 10,0 11 6 ENE 1024,5 10
17.02.2019 20:00:00 12,6 9,6 11 6 ENE 1024,4 10
17.02.2019 19:00:00 12,8 9,2 11 6 E 1024,3 10
17.02.2019 18:00:00 13,7 9,5 13 7 ENE 1024,2 10
17.02.2019 17:00:00 14,1 9,5 13 7 ENE 1024,6 10
17.02.2019 16:00:00 14,7 9,5 13 7 ENE 1025,0 18
17.02.2019 15:00:00 15,2 9,8 18 10 ENE 1025,3 10
17.02.2019 14:00:00 15,4 9,7 15 8 ENE 1025,8 10
17.02.2019 13:00:00 15,4 9,5 16 9 E 1026,7 10
17.02.2019 12:00:00 15,0 9,7 21 11 E 1026,8 10
17.02.2019 11:00:00 14,9 9,6 21 11 E 1026,9 10
17.02.2019 10:00:00 13,8 9,6 16 9 ENE 1027,3 20
17.02.2019 09:00:00 13,0 9,6 15 8 ENE 1026,9 10
17.02.2019 08:00:00 10,0 8,3 11 6 NE 1026,5 10
17.02.2019 07:00:00 10,2 8,0 13 7 NNE 1026,5 10
17.02.2019 06:00:00 10,8 8,3 13 7 NNE 1026,6 10
17.02.2019 05:00:00 12,6 9,3 13 7 ENE 1026,8 10
17.02.2019 04:00:00 12,5 9,4 13 7 ENE 1026,8 10
17.02.2019 03:00:00 10,6 8,6 9 5 NE 1027,1 10
17.02.2019 02:00:00 10,6 8,6 9 5 NNE 1027,4 10
17.02.2019 01:00:00 11,1 9,0 11 6 NNE 1027,8 10
17.02.2019 00:00:00 10,7 8,7 9 5 NNE 1027,7 10
16.02.2019 23:00:00 9,8 7,9 9 5 NNE 1027,9 10
16.02.2019 22:00:00 9,6 7,6 11 6 NNE 1027,9 1,8

tt = temperature
td = dewpoint
ff = wind speed
dd = wind direction
ppp = reduced air pressure
vv = visibility

Next stations